Regional Weather Roundup
Issued by NWS

Home | Current Version | Previous Version | Text Only | Print | Product List | Glossary Off
Versions: 1 2 3 4 5 6 7 8 9 10 11 12 13 14 15 16 17 18 19 20 21 22 23 24 25 26 27 28 29 30 31 32 33 34 35 36 37 38 39 40 41 42 43 44 45 46 47 48 49 50

000
ASUS43 KMKX 020900
RWRWI

WISCONSIN REGIONAL WEATHER ROUNDUP
NATIONAL WEATHER SERVICE MILWAUKEE/SULLIVAN WI
400 AM CDT SUN AUG 02 2015

NOTE: "FAIR" INDICATES FEW OR NO CLOUDS BELOW 12,000 FEET WITH NO
SIGNIFICANT WEATHER AND/OR OBSTRUCTIONS TO VISIBILITY.

WIZ001-002-006>008-014>016-023>028-021000-
NORTHWEST WISCONSIN

CITY           SKY/WX    TMP DP  RH WIND       PRES   REMARKS
SUPERIOR ARPT  MOCLDY    62  59  92 CALM      29.66R
ASHLAND        MOCLDY    65  63  93 W6        29.67R
HAYWARD        CLEAR     67  63  87 S5        29.68F
SIREN          CLEAR     72  63  74 SW8       29.66F
CUMBERLAND     CLEAR     64  63  94 SW5       29.70F
RICE LAKE      CLEAR     67  63  87 S3        29.72F
CHETEK         CLEAR     68  65  90 S5        29.71F
LADYSMITH      CLEAR     67  64  87 SW6       29.73F
EAU CLAIRE     NOT AVBL
MENOMONIE      CLEAR     70  66  88 SW5       29.71F
NEW RICHMOND   CLEAR     68  66  92 S6        29.71F
OSCEOLA        CLEAR     72  64  78 SW7       29.72F
$$

WIZ003>005-009-010-017-018-021000-
NORTH CENTRAL WISCONSIN

CITY           SKY/WX    TMP DP  RH WIND       PRES   REMARKS
MANITOWISH WTR PTCLDY    61  61 100 S6        29.70F
ARBOR VITAE    PTCLDY    62  59  90 S6        29.72F
WOODRUFF       PTCLDY    62  59  90 S6        29.72F
RHINELANDER    PTCLDY    68  61  78 SW10      29.75F
EAGLE RIVER    PTCLDY    61  56  82 SW3       29.73F
LAND O LAKES   PTCLDY    56  55  95 CALM      29.73F
PHILLIPS       CLEAR     63  62  95 S3        29.72F
TOMAHAWK       PTCLDY    63  59  87 CALM      29.76S
MEDFORD        LGT RAIN  67  64  91 SW9       29.75F
MERRILL        NOT AVBL
$$

WIZ029-030-035-036-043>047-021000-
CENTRAL WISCONSIN

CITY           SKY/WX    TMP DP  RH WIND       PRES   REMARKS
WAUSAU         MOCLDY    65  64  97 E3        29.74F THUNDER
MOSINEE        MOCLDY    63  63 100 S5        29.77F
MARSHFIELD     MOCLDY    67  62  84 SW7       29.76F
STEVENS POINT  DRIZZLE   66  62  85 S3        29.78S
WAUPACA        CLOUDY    67  63  87 S5        29.78S
WAUTOMA        NOT AVBL
WISC RAPIDS    MOCLDY    70  64  81 SW5       29.78F
CAMP DOUGLAS   NOT AVBL
$$

WIZ011>013-019>022-031-037>040-048>050-021000-
NORTHEAST WISCONSIN

CITY           SKY/WX    TMP DP  RH WIND       PRES   REMARKS
ANTIGO         MOCLDY    61  60  97 S5        29.77F
SHAWANO        LGT RAIN  67  60  79 CALM      29.77S
OCONTO         CLOUDY    62  59  91 SW5       29.75S
STURGEON BAY   CLOUDY    68  57  68 SW12      29.76F
GREEN BAY      CLOUDY    68  62  81 SW6       29.76F
MANITOWOC      NOT AVBL
APPLETON       CLOUDY    70  59  68 SW6       29.79F
CLINTONVILLE   CLOUDY    68  59  73 SW3       29.78R
OSHKOSH        CLOUDY    67  61  81 SW5       29.78S
$$

WIZ032>034-041-042-053>061-021000-
SOUTHWEST WISCONSIN

CITY           SKY/WX    TMP DP  RH WIND       PRES   REMARKS
LA CROSSE      CLEAR     74  69  85 S6        29.75F
SPARTA         PTCLDY    71  67  89 S6        29.77F
VIROQUA        CLEAR     72  70  93 SW8       29.80F
BOSCOBEL       PTCLDY    74  69  85 SW7       29.79F
PRAIRIE DU CHI PTCLDY    73  67  82 SW5       29.79F
PLATTEVILLE    CLEAR     70  68  96 S8        29.83F
$$

WIZ056-057-062-063-064-067-068-021000-
SOUTH CENTRAL WISCONSIN

CITY           SKY/WX    TMP DP  RH WIND       PRES   REMARKS
REEDSBURG      PTCLDY    74  68  82 W7        29.79S
BARABOO/DELLS  PTCLDY    73  65  76 SW8       29.79F
LONE ROCK      NOT AVBL
MINERAL POINT  PTCLDY    72  68  88 S9        29.83F
MADISON        PTCLDY    75  67  76 SW7       29.80F
MIDDLETON      PTCLDY    74  67  78 SW9G18    29.82F
WATERTOWN      MOCLDY    69  69 100 S5        29.82F
MONROE         CLEAR     70  66  88 SW13      29.84F
JANESVILLE     PTCLDY    72  68  88 S6        29.84F
$$

WIZ051-052-058>065-066-070>072-021000-
SOUTHEAST WISCONSIN

CITY           SKY/WX    TMP DP  RH WIND       PRES   REMARKS
MILWAUKEE      PTCLDY    71  65  81 SW9       29.81F
WAUKESHA       PTCLDY    68  64  88 SW6       29.84F
MILWAUKEE/TIMM PTCLDY    70  63  78 SW3       29.83F
RACINE         PTCLDY    71  64  78 SW8       29.84F
BURLINGTON     MOCLDY    65  63  93 CALM      29.84F
KENOSHA        PTCLDY    71  65  81 SW8       29.84F
FOND DU LAC    CLOUDY    68  64  87 S6        29.80S
SHEBOYGAN      MOCLDY    70  65  84 W8        29.80S
WEST BEND      PTCLDY    72  64  78 SW8       29.80F
JUNEAU         MOCLDY    68  66  93 S9        29.82F
$$

LSZ147-162-021000-
LAKE SUPERIOR

STATION/POSITION TIME  TEMP    WIND        PRES    WAVE
                       AIR SEA DIR/SP/G            HT/PER
                 (UTC) (F)     (DEG/KT/KT) (MB)    (FT/S)
W MID LAKE BUOY  0750   61 55  220/ 12/ 12 1003.4S   1/ 3
DEVILS ISLAND    0800   68     240/ 12/ 13 1003.3F
PORT WING        0800   66      CALM  /  1 1004.1F
SAXON HARBOR     0840   70                 1003.4F
$$

LMZ867-665-643>646-021000-
LAKE MICHIGAN

STATION/POSITION TIME  TEMP    WIND        PRES    WAVE
                       AIR SEA DIR/SP/G            HT/PER
                 (UTC) (F)     (DEG/KT/KT) (MB)    (FT/S)
CHAMBERS ISLAND  0800   70     180/  5/  9 1007.1F
S GREEN BAY BUOY 0800   71 69  190/ 12/ 14 1008.9F
N MID LAKE BUOY  0750   70 69  220/ 16/ 17 1006.6F   2/ 4
NORTHPORT PIER   0800   66     170/  3/  6 1007.1F
SISTER BAY       0645   69     190/  6/  8   N/A
ALGOMA LAKESHORE 0742          220/  5/  5   N/A
KEWAUNEE LAKESHO 0800   65     250/  1/  2 1007.9F
SHEBOYGAN LAKESH 0800   71     240/ 11/ 12 1008.9F
PORT WASHINGTON  0800   72     260/  9/ 13 1010.2F
ATWATER BUOY     0800   71 60  230/ 12/ 16 1011.3F
MILWAUKEE LAKESH 0800   72     240/ 11/ 13   N/A
KENOSHA   LAKESH 0800   74     250/  8/ 14 1010.5S
$$

TC  - TEMPERATURE IN CELSIUS
VSB - VISIBILITY IN STATUTE MILES
WCI - WIND CHILL INDEX
HX  - HEAT INDEX




USA.gov is the U.S. government's official web portal to all federal, state and local government web resources and services.